Simultaneous Nadir Overpasses (SNOs) Predictions

Prediction of SNOs between AQUA and NOAA-19 Satellite Orbit:

Table of predicted SNOs for the next 14.0 days since TLE Epoch: 5/29/2020
Index Date (AQUA) Time (AQUA) Lat,Lon (AQUA) SZA (AQUA ) Date (NOAA-19) Time (NOAA-19) Lat,Lon (NOAA-19) SZA (NOAA-19 ) Distance(km) Time Diff (sec)
1 05/30/2020 21:37:44 79.77,-173.20 59.10 05/30/2020 21:36:48 79.76,-173.22 59.11 1.71 56
2 05/30/2020 22:27:11 -79.79, -5.70 120.88 05/30/2020 22:27:45 -79.78, -5.69 120.90 1.02 34
3 06/02/2020 04:00:55 79.78, 90.95 58.82 06/02/2020 04:01:05 79.79, 91.10 58.81 3.16 10
4 06/04/2020 09:34:39 -79.77,-172.38 121.46 06/04/2020 09:34:22 -79.77,-172.30 121.46 1.74 17
5 06/04/2020 10:24:10 79.93, -6.05 58.80 06/04/2020 10:25:16 79.96, -2.75 58.51 64.09 66
6 06/06/2020 15:08:23 79.77, -75.83 58.32 06/06/2020 15:07:42 79.74, -75.89 58.32 3.48 41
7 06/06/2020 15:57:50 -79.78, 91.76 121.68 06/06/2020 15:58:40 -79.78, 91.87 121.70 2.34 50
8 06/08/2020 20:42:07 -79.75, 20.85 121.90 06/08/2020 20:40:59 -79.75, 21.03 121.89 3.63 68
9 06/08/2020 21:31:34 79.78,-171.74 58.15 06/08/2020 21:31:59 79.76,-171.64 58.11 3.22 25




NCC Satellite Simultaneous Nadir Overpasses (SNOs) Prediction Service
